This is the latest recevied weather packets stored in our database for station/object ON7SD-5. If no packets are shown the sender has not sent any weather packets the latest 1 day(s).
| Time | Temp. | Humidity | Pressure | Rain* | Wind** | Luminosity | Snow |
|---|---|---|---|---|---|---|---|
| 1777975627 | 12.78° C | 84% | 1009.5 hPa | 0 mm | 0.89 m/s, 64° | 229 W/m² | - |
| 1777975327 | 12.78° C | 84% | 1009.6 hPa | 0 mm | 0.89 m/s, 18° | 214 W/m² | - |
| 1777975027 | 12.78° C | 84% | 1009.6 hPa | 0 mm | 0.89 m/s, 16° | 169 W/m² | - |
| 1777974727 | 12.78° C | 84% | 1009.5 hPa | 0 mm | 0.89 m/s, 20° | 227 W/m² | - |
| 1777974427 | 12.78° C | 85% | 1009.5 hPa | 0 mm | 0.89 m/s, 23° | 202 W/m² | - |
| 1777974127 | 12.78° C | 85% | 1009.5 hPa | 0 mm | 1.79 m/s, 20° | 144 W/m² | - |
| 1777973827 | 12.22° C | 85% | 1009.5 hPa | 0 mm | 1.34 m/s, 23° | 218 W/m² | - |
| 1777973527 | 12.22° C | 85% | 1009.6 hPa | 0 mm | 1.34 m/s, 30° | 241 W/m² | - |
| 1777973227 | 12.22° C | 85% | 1009.6 hPa | 0 mm | 1.34 m/s, 39° | 178 W/m² | - |
| 1777972927 | 12.22° C | 86% | 1009.6 hPa | 0 mm | 0.89 m/s, 49° | 167 W/m² | - |
| 1777972627 | 12.22° C | 86% | 1009.6 hPa | 0 mm | 0.89 m/s, 53° | 163 W/m² | - |
| 1777972332 | 12.22° C | 86% | 1009.6 hPa | 0 mm | 0.89 m/s, 53° | 142 W/m² | - |
| 1777972027 | 12.22° C | 85% | 1009.6 hPa | 0 mm | 0.45 m/s, 65° | 151 W/m² | - |
| 1777971727 | 12.22° C | 86% | 1009.7 hPa | 0 mm | 0.45 m/s, 69° | 109 W/m² | - |
| 1777971427 | 12.22° C | 86% | 1009.7 hPa | 0 mm | 0.45 m/s, 69° | 114 W/m² | - |
| 1777971127 | 12.22° C | 86% | 1009.8 hPa | 0 mm | 0.89 m/s, 69° | 91 W/m² | - |
| 1777970827 | 12.22° C | 85% | 1009.8 hPa | 0 mm | 0.89 m/s, 67° | 86 W/m² | - |
| 1777970527 | 12.22° C | 85% | 1009.8 hPa | 0 mm | 0.45 m/s, 65° | 90 W/m² | - |
| 1777970227 | 12.22° C | 85% | 1009.8 hPa | 0 mm | 0.45 m/s, 65° | 83 W/m² | - |
| 1777969927 | 12.22° C | 86% | 1009.9 hPa | 0 mm | 0.89 m/s, 65° | 74 W/m² | - |
| 1777969627 | 12.22° C | 85% | 1009.8 hPa | 0 mm | 0.89 m/s, 65° | 65 W/m² | - |
| 1777969327 | 12.22° C | 85% | 1009.8 hPa | 0 mm | 1.34 m/s, 30° | 88 W/m² | - |
| 1777969027 | 12.22° C | 84% | 1009.9 hPa | 0 mm | 0.89 m/s, 38° | 107 W/m² | - |
| 1777968727 | 12.22° C | 84% | 1009.7 hPa | 0 mm | 0.45 m/s, 41° | 113 W/m² | - |
| 1777968427 | 12.22° C | 84% | 1009.7 hPa | 0 mm | 0.45 m/s, 49° | 127 W/m² | - |
* Rain latest hour (hover to see other rain measurements)
** Current wind speed in m/s (hover to see current wind gust speed)